Regional Weather Roundup
Issued by NWS

Home | Current Version | Previous Version | Graphics & Text | Print | Product List | Glossary On
Versions: 1 2 3 4 5 6 7 8 9 10 11 12 13 14 15 16 17 18 19 20 21 22 23 24 25 26 27 28 29 30 31 32 33 34 35 36 37 38 39 40 41 42 43 44 45 46 47 48 49 50
000
ASUS43 KLMK 131702
RWRKY
KENTUCKY REGIONAL WEATHER ROUNDUP
NATIONAL WEATHER SERVICE LOUISVILLE KY
1200 PM EST WED DEC 13 2017

NOTE "FAIR" INDICATES FEW OR NO CLOUDS BELOW 12,000 FEET
WITH NO SIGNIFICANT WEATHER AND/OR OBSTRUCTIONS TO VISIBILITY.

KYZ001>023-026-027-061>063-070>075-131800-
WESTERN AND SOUTH CENTRAL KENTUCKY

CITY           SKY/WX    TMP DP  RH WIND       PRES   REMARKS
PADUCAH        PTSUNNY   44  16  32 SW16G31   29.78F
HENDERSON      SUNNY     41  18  39 S21G26    29.72F
OWENSBORO      SUNNY     40  15  36 SW24G32   29.76F WCI  29
HOPKINSVILLE   SUNNY     44  13  28 SW18G25   29.83F
BOWLING GREEN  SUNNY     41  13  31 S17       29.87F
GLASGOW        NOT AVBL
$$

KYZ024-025-028>034-038-045-046-053-131800-
NORTH CENTRAL KENTUCKY

CITY           SKY/WX    TMP DP  RH WIND       PRES   REMARKS
LOUISVILLE/SDF CLOUDY    37   9  31 S17G25    29.78F WCI  27
LOUISVILLE/LOU CLOUDY    36  11  35 S16       29.79F WCI  26
FORT KNOX      CLOUDY    38  10  31 SW20G25   29.77F WCI  27
$$

KYZ035>037-039>044-047>052-055>060-089>105-131800-
NORTHEAST KENTUCKY

CITY           SKY/WX    TMP DP  RH WIND       PRES   REMARKS
LEXINGTON      SUNNY     35   8  32 S21       29.80F WCI  24
COVINGTON      CLOUDY    30  10  43 S14G23    29.74F WCI  19
FRANKFORT      PTSUNNY   37   7  28 S16G24    29.79F WCI  28
$$

KYZ054-064>069-076>088-106>120-131800-
SOUTHEAST KENTUCKY

CITY           SKY/WX    TMP DP  RH WIND       PRES   REMARKS
JACKSON        SUNNY     32   7  35 VRB5      29.84F WCI  27
LONDON         SUNNY     34   3  27 SW12      29.88F WCI  25
SOMERSET       NOT AVBL
MIDDLESBORO    SUNNY     34   8  34 S12G18    29.92F WCI  26
MONTICELLO     MOSUNNY   39   7  26 S7G20     29.90F WCI  34
$$




USA.gov is the U.S. government's official web portal to all federal, state and local government web resources and services.